Location: Burjasot
(39.5167°N, 0.4167°W)
Time: 04:47:12
(UTC+02:00)

ISS - Visible Passes

Search period start: 23 October 2019 00:00
Search period end: 01 November 2019 23:00
Orbit: 411 x 421 km, 51.6° (Epoch: 23 October)

Date Brightness Start Highest point End Pass type
(mag) Time Alt. Az. Time Alt. Az. Time Alt. Az.
23 Oct -1.7 07:34:05 10° SSW 07:37:03 29° SE 07:40:02 10° ENE visible
24 Oct -0.9 06:46:24 10° S 06:48:39 17° SE 06:50:54 10° E visible
25 Oct -3.8 07:33:09 10° SW 07:36:32 89° NW 07:39:54 10° NE visible
26 Oct -3.0 06:46:50 32° SSW 06:48:00 49° SE 06:51:16 10° ENE visible
27 Oct -1.1 05:00:54 20° E 05:00:54 20° E 05:02:25 10° ENE visible
27 Oct -2.9 06:33:50 15° W 06:36:10 34° NNW 06:39:18 10° NE visible
28 Oct -3.5 05:47:43 54° NNW 05:47:43 54° NNW 05:50:50 10° NE visible
29 Oct -0.9 05:01:27 16° NE 05:01:27 16° NE 05:02:16 10° NE visible
29 Oct -1.9 06:34:21 14° NW 06:35:59 18° NNW 06:38:26 10° NNE visible
30 Oct -2.0 05:47:58 23° N 05:47:58 23° N 05:50:02 10° NNE visible
31 Oct -0.5 05:01:29 11° NE 05:01:29 11° NE 05:01:36 10° NE visible
31 Oct -1.4 06:34:23 10° NW 06:35:54 13° NNW 06:37:27 10° NNE visible
01 Nov -1.3 05:47:50 14° N 05:47:50 14° N 05:49:04 10° NNE visible
